EW5962 Weather Reports


time (UTC)temp
F
wind
direction
speed
knots
gust
knots
rain 1hr
in
rain 24hr
in
rain mn
in
humidity
%
barometer
mb
20260902230603 88 198 0.0 0.0 0.00 0.00 0.00 68 1014.8
20260902230003 89 198 0.0 0.0 0.00 0.00 0.00 66 1014.7
20260902225509 89 198 0.0 0.0 0.00 0.00 0.00 66 1014.8
20260902225106 89 198 0.0 0.0 0.00 0.00 0.00 64 1014.7
20260902224503 90 198 0.0 0.0 0.00 0.00 0.00 64 1014.7
20260902224009 90 198 0.0 0.0 0.00 0.00 0.00 61 1014.6
20260902223603 90 198 0.0 0.0 0.00 0.00 0.00 62 1014.6
20260902223003 91 198 0.0 0.0 0.00 0.00 0.00 61 1014.6
20260902222511 91 198 0.0 0.0 0.00 0.00 0.00 61 1014.6
20260902222103 91 198 0.0 0.0 0.00 0.00 0.00 60 1014.6
20260902221503 92 194 0.0 0.0 0.00 0.00 0.00 59 1014.6
20260902221009 92 194 0.0 0.0 0.00 0.00 0.00 55 1014.6
20260902220605 92 194 0.0 0.0 0.00 0.00 0.00 59 1014.6
20260902220003 93 194 0.0 0.0 0.00 0.00 0.00 56 1014.7
20260902215515 93 194 0.0 0.0 0.00 0.00 0.00 53 1014.7
20260902215107 93 194 0.0 0.0 0.00 0.00 0.00 53 1014.7
20260902214503 94 194 0.0 0.0 0.00 0.00 0.00 53 1014.8
20260902214010 94 194 0.0 0.0 0.00 0.00 0.00 53 1014.7
20260902213605 95 194 0.0 0.0 0.00 0.00 0.00 52 1014.8
20260902213003 95 194 0.0 0.0 0.00 0.00 0.00 48 1014.8
20260902212509 96 197 0.0 0.0 0.00 0.00 0.00 50 1014.8
20260902212104 96 197 0.0 0.0 0.00 0.00 0.00 45 1014.8
20260902211504 96 197 0.0 0.9 0.00 0.00 0.00 45 1014.7
20260902211009 96 197 0.0 0.9 0.00 0.00 0.00 45 1014.8
20260902210604 97 176 0.0 0.9 0.00 0.00 0.00 47 1014.8
20260902210003 97 231 0.0 0.9 0.00 0.00 0.00 44 1014.8
20260902205508 97 216 0.0 0.9 0.00 0.00 0.00 52 1014.7
20260902205103 97 215 0.0 0.0 0.00 0.00 0.00 51 1014.7
20260902204503 97 215 0.0 0.0 0.00 0.00 0.00 47 1014.8
20260902204010 98 215 0.0 1.7 0.00 0.00 0.00 50 1014.8
20260902203604 98 216 0.0 1.7 0.00 0.00 0.00 48 1014.8
20260902203004 98 207 0.0 0.0 0.00 0.00 0.00 44 1014.9
20260902202510 98 214 0.0 0.0 0.00 0.00 0.00 42 1014.9
20260902202107 98 191 0.0 1.7 0.00 0.00 0.00 47 1014.8
20260902201503 98 191 0.0 1.7 0.00 0.00 0.00 46 1014.9
20260902201009 98 196 0.0 3.5 0.00 0.00 0.00 46 1014.9
20260902200603 99 148 0.9 3.5 0.00 0.00 0.00 43 1014.9
20260902200010 99 170 0.9 2.6 0.00 0.00 0.00 43 1015.0
20260902195511 98 172 0.0 4.3 0.00 0.00 0.00 43 1015.1
20260902195103 98 205 0.9 4.3 0.00 0.00 0.00 44 1015.1
20260902194504 97 176 0.0 3.5 0.00 0.00 0.00 44 1015.2
20260902194010 97 219 0.0 1.7 0.00 0.00 0.00 43 1015.2
20260902193603 97 229 0.0 0.9 0.00 0.00 0.00 43 1015.3
20260902193003 98 224 0.0 0.9 0.00 0.00 0.00 51 1015.3
20260902192510 99 275 0.0 2.6 0.00 0.00 0.00 49 1015.4
20260902192103 99 311 0.0 2.6 0.00 0.00 0.00 44 1015.4
20260902191503 99 294 0.0 4.3 0.00 0.00 0.00 45 1015.5
20260902191010 99 316 0.9 4.3 0.00 0.00 0.00 42 1015.7
20260902190606 99 134 0.0 0.9 0.00 0.00 0.00 47 1015.7
20260902190004 98 312 0.0 3.5 0.00 0.00 0.00 46 1015.7
20260902185510 98 87 0.0 3.5 0.00 0.00 0.00 46 1015.6
20260902185105 98 16 0.0 4.3 0.00 0.00 0.00 46 1015.7
20260902184504 98 349 0.0 4.3 0.00 0.00 0.00 45 1015.8
20260902184009 98 180 0.0 3.5 0.00 0.00 0.00 47 1015.9
20260902183603 97 274 0.0 3.5 0.00 0.00 0.00 48 1016.0
20260902183004 97 1 0.0 3.5 0.00 0.00 0.00 46 1016.0
20260902182509 97 32 0.0 3.5 0.00 0.00 0.00 47 1016.0
20260902182104 96 300 0.0 0.9 0.00 0.00 0.00 53 1016.1
20260902181504 95 237 0.0 0.9 0.00 0.00 0.00 50 1016.1
20260902181009 95 239 0.0 0.0 0.00 0.00 0.00 53 1016.1
20260902180605 94 18 0.0 0.0 0.00 0.00 0.00 56 1016.1
20260902180004 94 348 0.0 0.0 0.00 0.00 0.00 50 1016.1
20260902175509 94 348 0.0 0.0 0.00 0.00 0.00 50 1016.2
20260902175104 94 348 0.0 2.6 0.00 0.00 0.00 50 1016.2
20260902174503 95 301 0.0 3.5 0.00 0.00 0.00 50 1016.2
20260902174009 95 3 0.0 3.5 0.00 0.00 0.00 50 1016.4
20260902173603 95 311 0.0 0.9 0.00 0.00 0.00 50 1016.4
20260902173003 94 162 0.0 1.7 0.00 0.00 0.00 53 1016.4
20260902172509 94 162 0.0 1.7 0.00 0.00 0.00 50 1016.4
20260902172104 95 184 0.0 3.5 0.00 0.00 0.00 53 1016.5
20260902171504 95 174 0.9 3.5 0.00 0.00 0.00 50 1016.6
20260902171009 94 212 0.9 3.5 0.00 0.00 0.00 51 1016.7
20260902170603 94 221 0.0 4.3 0.00 0.00 0.00 54 1016.7
20260902170003 95 218 0.9 5.2 0.00 0.00 0.00 51 1016.8
20260902165510 95 181 1.7 5.2 0.00 0.00 0.00 51 1016.8
20260902165106 96 169 0.0 2.6 0.00 0.00 0.00 50 1016.9
20260902164503 96 1 1.7 2.6 0.00 0.00 0.00 50 1016.9
20260902164009 95 78 0.0 2.6 0.00 0.00 0.00 53 1016.9
20260902163602 95 41 0.0 2.6 0.00 0.00 0.00 52 1016.9
20260902163002 94 357 0.0 4.3 0.00 0.00 0.00 54 1017.0
20260902162509 94 1 0.9 4.3 0.00 0.00 0.00 51 1017.1
20260902162103 94 354 1.7 4.3 0.00 0.00 0.00 53 1017.1
20260902161504 93 9 0.0 2.6 0.00 0.00 0.00 54 1017.2
20260902161013 92 201 0.9 2.6 0.00 0.00 0.00 56 1017.2
20260902160603 92 209 0.0 3.5 0.00 0.00 0.00 56 1017.2
20260902160110 92 175 0.9 3.5 0.00 0.00 0.00 56 1017.3
20260902155509 92 210 0.0 2.6 0.00 0.00 0.00 57 1017.3
20260902155103 92 223 0.0 1.7 0.00 0.00 0.00 53 1017.4
20260902154502 92 348 0.0 2.6 0.00 0.00 0.00 54 1017.4
20260902154011 91 354 0.0 1.7 0.00 0.00 0.00 58 1017.4
20260902153604 91 325 0.0 1.7 0.00 0.00 0.00 58 1017.3
20260902153003 90 339 0.0 0.9 0.00 0.00 0.00 64 1017.4
20260902152509 90 309 0.0 0.9 0.00 0.00 0.00 67 1017.4
20260902152103 90 354 0.0 2.6 0.00 0.00 0.00 65 1017.4
20260902151503 89 349 0.9 2.6 0.00 0.00 0.00 60 1017.3
20260902151011 89 257 0.0 4.3 0.00 0.00 0.00 62 1017.4
20260902150603 88 257 0.0 4.3 0.00 0.00 0.00 67 1017.3
20260902150003 87 333 0.0 2.6 0.00 0.00 0.00 66 1017.4
20260902145510 86 327 0.0 2.6 0.00 0.00 0.00 66 1017.3
20260902145102 85 344 0.0 1.7 0.00 0.00 0.00 71 1017.3
20260902144503 84 193 0.0 0.9 0.00 0.00 0.00 78 1017.3
20260902144011 84 47 0.0 2.6 0.00 0.00 0.00 72 1017.3
20260902143604 83 47 0.0 2.6 0.00 0.00 0.00 77 1017.3
20260902143003 83 315 0.0 4.3 0.00 0.00 0.00 75 1017.2
20260902142510 82 306 0.0 4.3 0.00 0.00 0.00 80 1017.2
20260902142105 81 349 0.0 2.6 0.00 0.00 0.00 80 1017.1
20260902141503 80 347 0.0 1.7 0.00 0.00 0.00 79 1017.0
20260902141010 79 345 0.0 1.7 0.00 0.00 0.00 81 1017.0
20260902140607 78 315 0.0 2.6 0.00 0.00 0.00 87 1017.0
20260902140006 77 317 0.0 2.6 0.00 0.00 0.00 89 1017.0
20260902135509 76 252 0.0 0.9 0.00 0.00 0.00 93 1017.1
20260902135105 76 252 0.0 0.9 0.00 0.00 0.00 93 1017.1
20260902134503 75 252 0.0 0.0 0.00 0.00 0.00 95 1017.1
20260902134009 75 252 0.0 0.0 0.00 0.00 0.00 96 1017.1
20260902133603 74 252 0.0 0.0 0.00 0.00 0.00 96 1017.1
20260902133004 74 252 0.0 0.0 0.00 0.00 0.00 97 1017.2
20260902132514 73 252 0.0 0.0 0.00 0.00 0.00 97 1017.1
20260902132103 73 252 0.0 0.9 0.00 0.00 0.00 97 1017.2
20260902131503 73 252 0.0 0.9 0.00 0.00 0.00 97 1017.3
20260902131010 72 252 0.0 0.9 0.00 0.00 0.00 97 1017.3
20260902130604 72 252 0.0 0.9 0.00 0.00 0.00 97 1017.3
20260902130002 72 231 0.0 0.0 0.00 0.00 0.00 97 1017.3
20260902125509 71 231 0.0 0.0 0.00 0.00 0.00 97 1017.3
20260902124503 71 231 0.0 0.0 0.00 0.00 0.00 97 1017.5
20260902124009 70 231 0.0 0.0 0.00 0.00 0.00 97 1017.5
20260902123606 70 231 0.0 0.0 0.00 0.00 0.00 97 1017.5
20260902123002 70 231 0.0 0.0 0.00 0.00 0.00 97 1017.5
20260902122511 70 231 0.0 0.0 0.00 0.00 0.00 97 1017.5
20260902122103 70 231 0.0 0.0 0.00 0.00 0.00 97 1017.5
20260902121502 69 231 0.0 0.0 0.00 0.00 0.00 96 1017.5
20260902121009 69 231 0.0 0.0 0.00 0.00 0.00 97 1017.4
20260902120604 69 231 0.0 0.0 0.00 0.00 0.00 97 1017.4
20260902120004 69 231 0.0 0.0 0.00 0.00 0.00 96 1017.3
20260902115509 69 231 0.0 0.0 0.00 0.00 0.00 96 1017.3
20260902115102 69 231 0.0 0.0 0.00 0.00 0.00 96 1017.3
20260902114503 69 231 0.0 0.0 0.00 0.00 0.00 96 1017.2
20260902114010 69 231 0.0 0.0 0.00 0.00 0.00 96 1017.2
20260902113604 69 231 0.0 0.0 0.00 0.00 0.00 96 1017.2
20260902113003 69 231 0.0 0.0 0.00 0.00 0.00 96 1017.1
20260902112510 69 231 0.0 0.0 0.00 0.00 0.00 96 1017.0
20260902112104 69 231 0.0 0.0 0.00 0.00 0.00 96 1016.9
20260902111505 69 231 0.0 0.0 0.00 0.00 0.00 96 1016.9
20260902111009 69 231 0.0 0.0 0.00 0.00 0.00 96 1017.0
20260902110606 69 231 0.0 0.0 0.00 0.00 0.00 96 1016.9
20260902110005 69 231 0.0 0.0 0.00 0.00 0.00 96 1016.8
20260902105512 69 231 0.0 0.0 0.00 0.00 0.00 96 1016.8
20260902105102 69 231 0.0 0.0 0.00 0.00 0.00 96 1016.9
20260902104503 69 231 0.0 0.0 0.00 0.00 0.00 96 1016.9
20260902104009 69 231 0.0 0.0 0.00 0.00 0.00 96 1016.7
20260902103605 69 231 0.0 0.0 0.00 0.00 0.00 96 1016.7
20260902103003 69 231 0.0 0.0 0.00 0.00 0.00 96 1016.7
20260902102509 69 231 0.0 0.0 0.00 0.00 0.00 96 1016.7
20260902102107 69 231 0.0 0.0 0.00 0.00 0.00 96 1016.7
20260902101504 69 231 0.0 0.0 0.00 0.00 0.00 96 1016.7
20260902101009 69 231 0.0 0.0 0.00 0.00 0.00 96 1016.7
20260902100603 69 231 0.0 0.0 0.00 0.00 0.00 95 1016.7
20260902100003 69 231 0.0 0.0 0.00 0.00 0.00 95 1016.6
20260902095510 69 231 0.0 0.0 0.00 0.00 0.00 95 1016.6
20260902095103 69 231 0.0 0.0 0.00 0.00 0.00 96 1016.6
20260902094503 70 231 0.0 0.0 0.00 0.00 0.00 95 1016.7
20260902094012 70 231 0.0 0.0 0.00 0.00 0.00 95 1016.6
20260902093605 70 231 0.0 0.0 0.00 0.00 0.00 95 1016.6
20260902093002 70 231 0.0 0.0 0.00 0.00 0.00 95 1016.5
20260902092512 70 231 0.0 0.0 0.00 0.00 0.00 95 1016.5
20260902092105 70 231 0.0 0.0 0.00 0.00 0.00 95 1016.6
20260902091503 70 231 0.0 0.0 0.00 0.00 0.00 95 1016.5
20260902091008 70 231 0.0 0.0 0.00 0.00 0.00 95 1016.5
20260902090603 70 231 0.0 0.0 0.00 0.00 0.00 95 1016.5
20260902090002 70 231 0.0 0.0 0.00 0.00 0.00 95 1016.4
20260902085508 70 231 0.0 0.0 0.00 0.00 0.00 95 1016.3
20260902085104 70 231 0.0 0.0 0.00 0.00 0.00 95 1016.4
20260902084502 70 231 0.0 0.0 0.00 0.00 0.00 95 1016.3
20260902084010 70 231 0.0 0.0 0.00 0.00 0.00 95 1016.3
20260902083602 70 231 0.0 0.0 0.00 0.00 0.00 95 1016.3
20260902083002 70 231 0.0 0.0 0.00 0.00 0.00 95 1016.3
20260902082509 70 231 0.0 0.0 0.00 0.00 0.00 95 1016.3
20260902082103 70 231 0.0 0.0 0.00 0.00 0.00 95 1016.3
20260902081505 70 231 0.0 0.0 0.00 0.00 0.00 95 1016.2
20260902081009 70 231 0.0 0.0 0.00 0.00 0.00 95 1016.2
20260902080603 70 231 0.0 0.0 0.00 0.00 0.00 95 1016.1
20260902080002 70 231 0.0 0.0 0.00 0.00 0.00 95 1016.1
20260902075509 70 231 0.0 0.0 0.00 0.00 0.00 95 1016.1
20260902075103 70 231 0.0 0.0 0.00 0.00 0.00 95 1016.1
20260902074503 71 231 0.0 0.0 0.00 0.00 0.00 95 1016.2
20260902074010 71 231 0.0 0.0 0.00 0.00 0.00 95 1016.2
20260902073603 71 231 0.0 0.0 0.00 0.00 0.00 95 1016.2
20260902073008 71 231 0.0 0.0 0.00 0.00 0.00 95 1016.1
20260902072508 71 231 0.0 0.0 0.00 0.00 0.00 95 1016.1
20260902072105 71 231 0.0 0.0 0.00 0.00 0.00 94 1016.1
20260902071512 71 231 0.0 0.0 0.00 0.00 0.00 94 1016.2
20260902071011 71 231 0.0 0.0 0.00 0.00 0.00 94 1016.2
20260902070602 71 231 0.0 0.0 0.00 0.00 0.00 94 1016.2
20260902070007 71 231 0.0 0.0 0.00 0.00 0.00 94 1016.2
20260902065511 71 231 0.0 0.0 0.00 0.00 0.00 94 1016.2
20260902065105 71 231 0.0 0.0 0.00 0.00 0.00 94 1016.2
20260902064503 71 231 0.0 0.0 0.00 0.00 0.00 94 1016.2
20260902064008 71 231 0.0 0.0 0.00 0.00 0.00 94 1016.2
20260902063602 71 231 0.0 0.0 0.00 0.00 0.00 94 1016.2
20260902063003 71 231 0.0 0.0 0.00 0.00 0.00 94 1016.3
20260902062509 71 231 0.0 0.0 0.00 0.00 0.00 94 1016.3
20260902062103 71 231 0.0 0.0 0.00 0.00 0.00 94 1016.3
20260902061505 72 231 0.0 0.0 0.00 0.00 0.00 94 1016.3
20260902061009 72 231 0.0 0.0 0.00 0.00 0.00 94 1016.2
20260902060602 72 231 0.0 0.0 0.00 0.00 0.00 94 1016.2
20260902060007 72 231 0.0 0.0 0.00 0.00 0.00 94 1016.3
20260902055508 72 231 0.0 0.0 0.00 0.00 0.00 94 1016.2
20260902055103 72 231 0.0 0.0 0.00 0.00 0.00 94 1016.1
20260902054503 72 231 0.0 0.0 0.00 0.00 0.00 94 1016.2
20260902054009 72 231 0.0 0.0 0.00 0.00 0.00 94 1016.1
20260902053603 72 231 0.0 0.0 0.00 0.00 0.00 94 1016.1
20260902053003 72 231 0.0 0.0 0.00 0.00 0.00 93 1016.2
20260902052509 72 231 0.0 0.0 0.00 0.00 0.00 93 1016.1
20260902052103 72 231 0.0 0.0 0.00 0.00 0.00 93 1016.1
20260902051502 72 231 0.0 0.0 0.00 0.00 0.00 93 1016.0
20260902051010 72 231 0.0 0.0 0.00 0.00 0.00 93 1016.0
20260902050606 72 231 0.0 0.0 0.00 0.00 0.00 93 1016.1
20260902050004 72 231 0.0 0.0 0.00 0.00 0.00 93 1016.1
20260902045510 73 231 0.0 0.9 0.00 0.00 0.00 93 1016.0
20260902045103 73 231 0.0 0.9 0.00 0.00 0.00 93 1015.9
20260902044501 73 231 0.0 0.0 0.00 0.00 0.00 93 1016.0
20260902044009 73 231 0.0 0.0 0.00 0.00 0.00 93 1016.0
20260902043602 73 231 0.0 0.0 0.00 0.00 0.00 93 1016.0
20260902043003 73 231 0.0 0.0 0.00 0.00 0.00 92 1015.8
20260902042510 73 231 0.0 0.0 0.00 0.00 0.00 92 1015.7
20260902042103 73 231 0.0 0.0 0.00 0.00 0.00 92 1015.8
20260902041505 73 231 0.0 0.0 0.00 0.00 0.00 92 1015.8
20260902041003 73 231 0.0 0.0 0.00 0.00 0.00 92 1015.8
20260902040503 73 231 0.0 0.0 0.00 0.00 0.00 92 1015.9
20260902040008 73 231 0.0 0.0 0.00 0.00 0.00 92 1016.0
20260902035602 74 231 0.0 0.0 0.00 0.00 0.00 91 1016.0
20260902035003 74 231 0.0 0.0 0.00 0.00 0.00 91 1016.0
20260902034509 74 231 0.0 0.0 0.00 0.00 0.00 91 1015.9
20260902034104 74 231 0.0 0.0 0.00 0.00 0.00 91 1015.8
20260902033502 74 231 0.0 0.0 0.00 0.00 0.00 91 1015.8
20260902033009 74 231 0.0 0.0 0.00 0.00 0.00 91 1015.8
20260902032602 74 231 0.0 0.0 0.00 0.00 0.00 91 1015.9
20260902032003 74 231 0.0 0.0 0.00 0.00 0.00 91 1015.8
20260902031509 74 231 0.0 0.0 0.00 0.00 0.00 91 1015.8
20260902031104 74 231 0.0 0.0 0.00 0.00 0.00 91 1015.7
20260902030503 74 231 0.0 0.0 0.00 0.00 0.00 90 1015.8
20260902030009 74 231 0.0 0.0 0.00 0.00 0.00 90 1015.8
20260902025603 75 231 0.0 0.0 0.00 0.00 0.00 90 1015.8
20260902025003 75 231 0.0 0.0 0.00 0.00 0.00 90 1015.8
20260902024512 75 231 0.0 0.0 0.00 0.00 0.00 90 1015.8
20260902024103 75 231 0.0 0.9 0.00 0.00 0.00 89 1015.8
20260902023503 75 231 0.0 0.9 0.00 0.00 0.00 89 1015.8
20260902023016 75 231 0.0 0.0 0.00 0.00 0.00 89 1015.7
20260902022606 75 231 0.0 0.0 0.00 0.00 0.00 89 1015.7
20260902022003 75 231 0.0 0.0 0.00 0.00 0.00 88 1015.7
20260902021508 75 231 0.0 0.0 0.00 0.00 0.00 88 1015.7
20260902021103 75 231 0.0 0.0 0.00 0.00 0.00 88 1015.6
20260902020505 76 231 0.0 0.0 0.00 0.00 0.00 88 1015.6
20260902020008 76 231 0.0 0.0 0.00 0.00 0.00 88 1015.5
20260902015602 76 231 0.0 0.0 0.00 0.00 0.00 87 1015.4
20260902015003 76 231 0.0 0.0 0.00 0.00 0.00 87 1015.3
20260902014511 76 231 0.0 0.0 0.00 0.00 0.00 87 1015.2
20260902014104 76 231 0.0 0.0 0.00 0.00 0.00 87 1015.2
20260902013503 77 231 0.0 0.0 0.00 0.00 0.00 86 1015.1
20260902013008 77 231 0.0 0.0 0.00 0.00 0.00 86 1015.0
20260902012603 77 231 0.0 0.0 0.00 0.00 0.00 86 1015.0
20260902012002 77 231 0.0 0.0 0.00 0.00 0.00 85 1015.0
20260902011512 77 231 0.0 0.0 0.00 0.00 0.00 85 1015.0
20260902011103 78 231 0.0 0.0 0.00 0.00 0.00 85 1015.0
20260902010502 78 231 0.0 0.0 0.00 0.00 0.00 84 1014.9
20260902010014 78 231 0.0 0.0 0.00 0.00 0.00 84 1014.9
20260902005603 78 231 0.0 0.0 0.00 0.00 0.00 84 1014.8
20260902005002 79 231 0.0 0.0 0.00 0.00 0.00 84 1014.7
20260902004508 79 231 0.0 0.0 0.00 0.00 0.00 83 1014.7
20260902004102 79 231 0.0 0.0 0.00 0.00 0.00 83 1014.7
20260902003502 79 231 0.0 0.0 0.00 0.00 0.00 82 1014.7
20260902003009 80 231 0.0 0.0 0.00 0.00 0.00 82 1014.7
20260902002604 80 231 0.0 0.0 0.00 0.00 0.00 81 1014.7
20260902002005 80 231 0.0 0.0 0.00 0.00 0.00 80 1014.6
20260902001509 81 231 0.0 0.0 0.00 0.00 0.00 79 1014.6
20260902001102 81 231 0.0 0.0 0.00 0.00 0.00 79 1014.6
20260902000502 82 231 0.0 0.0 0.00 0.00 0.00 78 1014.6
20260902000013 82 231 0.0 0.0 0.00 0.00 0.00 78 1014.6
20260901235603 82 231 0.0 0.0 0.00 0.00 0.00 77 1014.6
20260901235005 83 231 0.0 0.0 0.00 0.00 0.00 75 1014.7
20260901234508 83 231 0.0 0.0 0.00 0.00 0.00 74 1014.7
20260901234103 84 231 0.0 0.0 0.00 0.00 0.00 74 1014.7
20260901233504 84 231 0.0 0.0 0.00 0.00 0.00 73 1014.7
20260901233012 84 231 0.0 0.0 0.00 0.00 0.00 73 1014.7
20260901232603 85 231 0.0 0.0 0.00 0.00 0.00 72 1014.8
20260901232003 85 231 0.0 0.0 0.00 0.00 0.00 70 1014.9
20260901231509 85 231 0.0 0.0 0.00 0.00 0.00 69 1014.8
20260901231104 86 231 0.0 0.0 0.00 0.00 0.00 69 1014.9